Tracking 29892 objects as of 21-Nov-2024
HD Live streaming from Space Station
objects crossing your sky now

IRIDIUM 33 DEB

Track IRIDIUM 33 DEB now!
10-day predictions


NORAD ID: 34375
Int'l Code: 1997-051FT
Perigee: 770.1 km
Apogee: 916.8 km
Inclination: 86.4 °
Period: 101.6 minutes
Semi major axis: 7214 km
RCS: 0.0304 m2 (small)
Launch date: September 14, 1997
Source: United States (US)
Launch site: TYURATAM MISSILE AND SPACE COMPLEX (TTMTR)

Note: This is SATELLITE DEBRIS
Your satellite tracking list
Your tracking list is empty




NASA's NSSDC Master Catalog

Two Line Element Set (TLE):
1 34375U 97051FT  24325.51062476  .00001781  00000-0  83872-3 0  9999
2 34375  86.4301 338.7563 0101669 276.9621 248.0175 14.16773239812266
Source of the keplerian elements: AFSPC